DLH8MW EDDH-LEPA

Flight info

Callsign DLH8MW
Flight time 2h 23m
Altitude 38000
Route HABFU1G HABFU Y348 DOMEG DCT LIRSU DCT LIMGO/N0438F390 N852 SUTAL DCT GTQ DCT POGOL DCT LASAT DCT MOROK DCT GILIR DCT GEVEA DCT INCUS DCT BALSI DCT RETNO DCT TUPOX DCT MTG DCT DIVKO DCT VATIR N852 PIVUS DCT BODEQ N852 VERSO DCT LUNIK
Aircraft A20N/M-SDE2E3FGHIRWXY/LB1

Departure

Time 2026-04-24 20:06
Airport Hamburg Helmut Schmidt Airport (EDDH)

Arrival

Time 2026-04-24 22:30
Airport Palma de Mallorca Airport (LEPA)
Time Latitude Longitude Altitude Speed Heading
2026-04-24 19:22 53.62809 10.00244 44 ft 0 kts 62°
2026-04-24 19:50 53.62805 10.00234 44 ft 2 kts 62°
2026-04-24 19:51 53.62788 10.00180 42 ft 2 kts 55°
2026-04-24 19:51 53.62776 10.00159 43 ft 3 kts 27°
2026-04-24 19:52 53.62753 10.00151 45 ft 0 kts 341°
2026-04-24 19:54 53.62756 10.00150 45 ft 2 kts 341°
2026-04-24 19:54 53.62774 10.00136 43 ft 0 kts 335°
2026-04-24 19:55 53.62785 10.00127 44 ft 7 kts 335°
2026-04-24 19:55 53.62828 10.00086 46 ft 4 kts 328°
2026-04-24 19:55 53.62833 10.00081 46 ft 0 kts 328°
2026-04-24 19:55 53.62845 10.00068 46 ft 2 kts 327°
2026-04-24 19:56 53.62853 10.00059 46 ft 0 kts 324°
2026-04-24 19:56 53.62856 10.00051 46 ft 1 kts 299°
2026-04-24 19:56 53.62856 10.00027 46 ft 0 kts 270°
2026-04-24 19:56 53.62855 10.00024 46 ft 0 kts 265°
2026-04-24 20:00 53.62852 9.99996 46 ft 7 kts 255°
2026-04-24 20:01 53.62845 9.99969 46 ft 0 kts 245°
2026-04-24 20:03 53.62845 9.99968 46 ft 0 kts 245°
2026-04-24 20:04 53.62836 9.99933 43 ft 8 kts 244°
2026-04-24 20:04 53.62824 9.99794 45 ft 13 kts 307°
2026-04-24 20:04 53.62832 9.99785 45 ft 0 kts 333°
2026-04-24 20:05 53.62837 9.99781 45 ft 0 kts 333°
2026-04-24 20:06 53.62994 9.99640 45 ft 68 kts 332°
2026-04-24 20:06 53.63646 9.99049 41 ft 141 kts 332°
2026-04-24 20:06 53.64666 9.98129 278 ft 178 kts 331°
2026-04-24 20:06 53.65806 9.97139 981 ft 192 kts 332°
2026-04-24 20:07 53.66620 9.96458 1476 ft 201 kts 333°
2026-04-24 20:07 53.68352 9.95077 2547 ft 209 kts 335°
2026-04-24 20:07 53.69717 9.94049 3256 ft 219 kts 336°
2026-04-24 20:07 53.71113 9.92939 4025 ft 226 kts 326°
2026-04-24 20:08 53.72158 9.91020 4145 ft 222 kts 293°
2026-04-24 20:08 53.72397 9.88484 4252 ft 222 kts 260°
2026-04-24 20:08 53.71815 9.86038 4394 ft 238 kts 238°
2026-04-24 20:08 53.70873 9.83520 4521 ft 264 kts 239°
2026-04-24 20:09 53.69989 9.80794 4630 ft 265 kts 244°
2026-04-24 20:09 53.69266 9.77989 5137 ft 255 kts 249°
2026-04-24 20:09 53.68661 9.75233 6135 ft 249 kts 250°
2026-04-24 20:09 53.68090 9.72426 6925 ft 258 kts 251°
2026-04-24 20:10 53.67508 9.69461 7449 ft 274 kts 252°
2026-04-24 20:10 53.66905 9.66372 7735 ft 277 kts 252°
2026-04-24 20:10 53.66296 9.63287 7999 ft 278 kts 252°
2026-04-24 20:10 53.65671 9.60268 8799 ft 270 kts 246°
2026-04-24 20:11 53.64604 9.57566 8982 ft 284 kts 223°
2026-04-24 20:11 53.62962 9.55731 9100 ft 285 kts 208°
2026-04-24 20:11 53.61218 9.54188 9350 ft 280 kts 208°
2026-04-24 20:11 53.59539 9.52686 10240 ft 266 kts 208°
2026-04-24 20:12 53.57955 9.51254 11449 ft 252 kts 208°
2026-04-24 20:12 53.56430 9.49867 12354 ft 249 kts 208°
2026-04-24 20:12 53.54895 9.48464 13064 ft 252 kts 209°
2026-04-24 20:12 53.53354 9.47054 13762 ft 252 kts 209°
2026-04-24 20:13 53.51807 9.45640 14371 ft 256 kts 209°
2026-04-24 20:13 53.50206 9.44183 14765 ft 268 kts 208°
2026-04-24 20:13 53.48530 9.42652 15158 ft 280 kts 209°
2026-04-24 20:13 53.46782 9.41058 15540 ft 292 kts 208°
2026-04-24 20:14 53.44956 9.39395 15926 ft 306 kts 208°
2026-04-24 20:14 53.43042 9.37652 16315 ft 319 kts 208°
2026-04-24 20:14 53.41048 9.35839 16698 ft 332 kts 208°
2026-04-24 20:14 53.38979 9.33962 17082 ft 345 kts 208°
2026-04-24 20:15 53.36859 9.32041 17460 ft 357 kts 208°
2026-04-24 20:15 53.34640 9.30043 17840 ft 368 kts 207°
2026-04-24 20:15 53.32266 9.28329 18219 ft 376 kts 199°
2026-04-24 20:15 53.29736 9.27151 18615 ft 379 kts 191°
2026-04-24 20:16 53.27131 9.26393 19196 ft 381 kts 190°
2026-04-24 20:16 53.24509 9.25631 19797 ft 384 kts 190°
2026-04-24 20:16 53.21878 9.24852 20398 ft 386 kts 190°
2026-04-24 20:16 53.19229 9.24064 21095 ft 384 kts 190°
2026-04-24 20:17 53.16615 9.23286 21840 ft 381 kts 190°
2026-04-24 20:17 53.11445 9.21751 23331 ft 373 kts 190°
2026-04-24 20:17 53.08908 9.20999 24087 ft 368 kts 190°
2026-04-24 20:18 53.07248 9.20508 24569 ft 364 kts 190°
2026-04-24 20:18 53.03950 9.19534 25566 ft 355 kts 190°
2026-04-24 20:18 53.01548 9.18825 26302 ft 346 kts 190°
2026-04-24 20:18 52.99212 9.18136 27037 ft 336 kts 190°
2026-04-24 20:19 52.96947 9.17435 27727 ft 327 kts 193°
2026-04-24 20:19 52.94761 9.16382 28077 ft 328 kts 201°
2026-04-24 20:19 52.92661 9.14863 28338 ft 330 kts 208°
2026-04-24 20:19 52.90638 9.13046 28625 ft 332 kts 208°
2026-04-24 20:20 52.88595 9.11224 28903 ft 334 kts 208°
2026-04-24 20:20 52.86534 9.09407 29172 ft 336 kts 208°
2026-04-24 20:20 52.84466 9.07590 29432 ft 338 kts 208°
2026-04-24 20:20 52.82380 9.05762 29685 ft 340 kts 208°
2026-04-24 20:21 52.80279 9.03925 29932 ft 342 kts 208°
2026-04-24 20:21 52.78168 9.02080 30181 ft 344 kts 208°
2026-04-24 20:21 52.76046 9.00229 30425 ft 346 kts 208°
2026-04-24 20:21 52.73908 8.98366 30668 ft 348 kts 208°
2026-04-24 20:22 52.71759 8.96494 30910 ft 350 kts 208°
2026-04-24 20:22 52.69600 8.94617 31140 ft 352 kts 208°
2026-04-24 20:22 52.67433 8.92735 31371 ft 354 kts 208°
2026-04-24 20:22 52.65248 8.90839 31594 ft 356 kts 208°
2026-04-24 20:23 52.63051 8.88935 31812 ft 357 kts 208°
2026-04-24 20:23 52.60848 8.87028 32021 ft 359 kts 208°
2026-04-24 20:23 52.59379 8.85758 32159 ft 361 kts 208°
2026-04-24 20:23 52.57150 8.83832 32357 ft 362 kts 208°
2026-04-24 20:24 52.54917 8.81904 32565 ft 364 kts 208°
2026-04-24 20:24 52.52667 8.79965 32763 ft 366 kts 208°
2026-04-24 20:24 52.50405 8.78018 32953 ft 367 kts 208°
2026-04-24 20:24 52.48140 8.76069 33165 ft 369 kts 208°
2026-04-24 20:25 52.45858 8.74109 33341 ft 371 kts 208°
2026-04-24 20:25 52.43565 8.72142 33535 ft 372 kts 208°
2026-04-24 20:25 52.41267 8.70172 33710 ft 374 kts 208°
2026-04-24 20:25 52.38961 8.68198 33894 ft 375 kts 208°
2026-04-24 20:26 52.36639 8.66213 34062 ft 377 kts 208°
2026-04-24 20:26 52.34307 8.64222 34234 ft 379 kts 208°
2026-04-24 20:26 52.31972 8.62230 34398 ft 380 kts 208°
2026-04-24 20:26 52.29654 8.60134 34549 ft 381 kts 211°
2026-04-24 20:27 52.27399 8.57830 34690 ft 383 kts 211°
2026-04-24 20:27 52.25173 8.55436 34819 ft 385 kts 214°
2026-04-24 20:27 52.22976 8.52916 34968 ft 387 kts 216°
2026-04-24 20:27 52.20881 8.50176 35106 ft 387 kts 227°
2026-04-24 20:28 52.19268 8.46677 35283 ft 387 kts 239°
2026-04-24 20:28 52.17868 8.42923 35411 ft 388 kts 238°
2026-04-24 20:28 52.16355 8.39286 35558 ft 389 kts 233°
2026-04-24 20:28 52.14687 8.35805 35700 ft 390 kts 230°
2026-04-24 20:29 52.11098 8.29151 35962 ft 393 kts 228°
2026-04-24 20:29 52.09249 8.25865 36089 ft 394 kts 227°
2026-04-24 20:29 52.07392 8.22582 36231 ft 394 kts 227°
2026-04-24 20:30 52.05534 8.19298 36351 ft 396 kts 227°
2026-04-24 20:30 52.03668 8.15998 36469 ft 397 kts 227°
2026-04-24 20:30 52.01803 8.12698 36586 ft 398 kts 227°
2026-04-24 20:30 51.99927 8.09383 36698 ft 399 kts 227°
2026-04-24 20:31 51.98046 8.06061 36803 ft 400 kts 227°
2026-04-24 20:31 51.96163 8.02742 36911 ft 401 kts 227°
2026-04-24 20:31 51.94272 7.99412 37022 ft 402 kts 227°
2026-04-24 20:31 51.92373 7.96073 37121 ft 403 kts 227°
2026-04-24 20:32 51.88564 7.89387 37316 ft 405 kts 227°
2026-04-24 20:32 51.84726 7.82671 37502 ft 407 kts 227°
2026-04-24 20:33 51.80872 7.75945 37683 ft 409 kts 227°
2026-04-24 20:33 51.76998 7.69198 37846 ft 411 kts 227°
2026-04-24 20:34 51.72996 7.62593 37978 ft 413 kts 221°
2026-04-24 20:34 51.68359 7.57017 38007 ft 419 kts 211°
2026-04-24 20:35 51.63149 7.52677 38008 ft 425 kts 205°
2026-04-24 20:35 51.57764 7.48570 38008 ft 432 kts 206°
2026-04-24 20:36 51.52330 7.44407 38008 ft 438 kts 206°
2026-04-24 20:36 51.46783 7.40166 38007 ft 445 kts 206°
2026-04-24 20:37 51.41153 7.35875 38007 ft 450 kts 205°
2026-04-24 20:37 51.35515 7.31591 38007 ft 449 kts 205°
2026-04-24 20:38 51.29868 7.27311 38007 ft 449 kts 205°
2026-04-24 20:38 51.24216 7.23039 38007 ft 449 kts 205°
2026-04-24 20:39 51.18564 7.18778 38011 ft 450 kts 205°
2026-04-24 20:39 51.12902 7.14522 38019 ft 450 kts 205°
2026-04-24 20:40 51.07227 7.10267 38007 ft 450 kts 205°
2026-04-24 20:40 51.01584 7.06049 38007 ft 448 kts 205°
2026-04-24 20:41 50.95947 7.01846 38007 ft 448 kts 205°
2026-04-24 20:41 50.90307 6.97652 38007 ft 448 kts 205°
2026-04-24 20:42 50.84663 6.93466 38007 ft 448 kts 205°
2026-04-24 20:42 50.79013 6.89287 38005 ft 448 kts 205°
2026-04-24 20:43 50.73367 6.85122 38004 ft 448 kts 205°
2026-04-24 20:43 50.67712 6.80962 38003 ft 448 kts 205°
2026-04-24 20:44 50.62063 6.76817 38001 ft 448 kts 205°
2026-04-24 20:44 50.56446 6.72707 37995 ft 448 kts 205°
2026-04-24 20:45 50.50789 6.68578 37992 ft 448 kts 205°
2026-04-24 20:45 50.45130 6.64459 37987 ft 448 kts 205°
2026-04-24 20:46 50.39469 6.60349 37990 ft 449 kts 205°
2026-04-24 20:46 50.33795 6.56241 37994 ft 449 kts 205°
2026-04-24 20:47 50.28124 6.52146 37993 ft 449 kts 205°
2026-04-24 20:47 50.22440 6.48053 37998 ft 450 kts 204°
2026-04-24 20:48 50.16549 6.44726 38005 ft 451 kts 195°
2026-04-24 20:48 50.10412 6.42700 38005 ft 451 kts 191°
2026-04-24 20:49 50.04249 6.40792 38018 ft 452 kts 191°
2026-04-24 20:49 49.98080 6.38860 38008 ft 451 kts 192°
2026-04-24 20:50 49.91940 6.36938 38007 ft 450 kts 192°
2026-04-24 20:50 49.85804 6.35022 38007 ft 450 kts 191°
2026-04-24 20:51 49.79659 6.33109 38007 ft 450 kts 191°
2026-04-24 20:51 49.73516 6.31202 38008 ft 450 kts 191°
2026-04-24 20:52 49.67341 6.29551 38010 ft 450 kts 184°
2026-04-24 20:52 49.61154 6.30291 38003 ft 450 kts 166°
2026-04-24 20:53 49.55276 6.33594 38003 ft 450 kts 157°
2026-04-24 20:53 49.49507 6.37339 38007 ft 450 kts 157°
2026-04-24 20:54 49.43738 6.41097 38003 ft 451 kts 156°
2026-04-24 20:54 49.38008 6.45033 38004 ft 451 kts 156°
2026-04-24 20:55 49.32281 6.48955 38007 ft 451 kts 156°
2026-04-24 20:55 49.26530 6.52859 38009 ft 451 kts 156°
2026-04-24 20:56 49.20788 6.56740 38009 ft 451 kts 156°
2026-04-24 20:56 49.15073 6.60594 38009 ft 451 kts 156°
2026-04-24 20:57 49.09318 6.64466 38009 ft 452 kts 156°
2026-04-24 20:57 49.03563 6.68301 38010 ft 451 kts 159°
2026-04-24 20:58 48.97523 6.70865 38009 ft 451 kts 171°
2026-04-24 20:58 48.91279 6.71382 38009 ft 450 kts 182°
2026-04-24 20:59 48.85003 6.71092 38005 ft 450 kts 182°
2026-04-24 20:59 48.78747 6.70842 38011 ft 450 kts 181°
2026-04-24 21:00 48.72476 6.70599 38011 ft 450 kts 181°
2026-04-24 21:00 48.66212 6.70355 38010 ft 450 kts 181°
2026-04-24 21:01 48.59939 6.70112 38009 ft 450 kts 181°
2026-04-24 21:01 48.53715 6.69871 38010 ft 450 kts 181°
2026-04-24 21:02 48.47434 6.69628 38010 ft 450 kts 181°
2026-04-24 21:02 48.41168 6.69386 38007 ft 450 kts 181°
2026-04-24 21:03 48.34895 6.69145 38005 ft 450 kts 181°
2026-04-24 21:03 48.28633 6.68903 38005 ft 450 kts 181°
2026-04-24 21:04 48.22404 6.68664 38002 ft 450 kts 181°
2026-04-24 21:04 48.16133 6.68424 38000 ft 450 kts 181°
2026-04-24 21:05 48.09862 6.68185 37996 ft 450 kts 181°
2026-04-24 21:05 48.03597 6.67947 37999 ft 450 kts 181°
2026-04-24 21:06 47.97324 6.67709 37993 ft 451 kts 181°
2026-04-24 21:06 47.91012 6.67471 38008 ft 456 kts 181°
2026-04-24 21:07 47.84649 6.67230 38008 ft 463 kts 181°
2026-04-24 21:07 47.78111 6.66984 38007 ft 469 kts 181°
2026-04-24 21:08 47.71639 6.66742 38005 ft 460 kts 181°
2026-04-24 21:08 47.68480 6.66624 38006 ft 448 kts 181°
2026-04-24 21:08 47.65379 6.66508 38008 ft 446 kts 181°
2026-04-24 21:09 47.59132 6.66274 38008 ft 452 kts 181°
2026-04-24 21:09 47.52841 6.66040 38007 ft 451 kts 181°
2026-04-24 21:10 47.46571 6.65807 38007 ft 451 kts 182°
2026-04-24 21:10 47.41439 6.64677 38008 ft 450 kts 197°
2026-04-24 21:11 47.35819 6.60645 38005 ft 452 kts 216°
2026-04-24 21:11 47.30997 6.54677 38014 ft 453 kts 221°
2026-04-24 21:12 47.26222 6.48676 38007 ft 451 kts 220°
2026-04-24 21:12 47.21439 6.42698 38008 ft 452 kts 220°
2026-04-24 21:13 47.16670 6.36754 38007 ft 451 kts 220°
2026-04-24 21:13 47.11879 6.30795 38007 ft 452 kts 220°
2026-04-24 21:14 47.06660 6.25717 38007 ft 452 kts 204°
2026-04-24 21:14 47.00631 6.23141 38008 ft 454 kts 187°
2026-04-24 21:15 46.94339 6.22308 38007 ft 453 kts 185°
2026-04-24 21:15 46.88044 6.21473 38007 ft 454 kts 185°
2026-04-24 21:16 46.81750 6.20634 38007 ft 454 kts 185°
2026-04-24 21:16 46.75436 6.19795 38009 ft 456 kts 185°
2026-04-24 21:17 46.69154 6.18963 38007 ft 456 kts 185°
2026-04-24 21:17 46.62824 6.18127 38007 ft 457 kts 185°
2026-04-24 21:18 46.56484 6.17292 38007 ft 456 kts 185°
2026-04-24 21:18 46.50156 6.16460 38008 ft 458 kts 185°
2026-04-24 21:19 46.43865 6.15635 38007 ft 455 kts 185°
2026-04-24 21:19 46.37579 6.14812 38014 ft 452 kts 185°
2026-04-24 21:20 46.28211 6.13590 37995 ft 449 kts 185°
2026-04-24 21:21 46.22029 6.12498 37994 ft 447 kts 189°
2026-04-24 21:21 46.15826 6.11100 38007 ft 452 kts 189°
2026-04-24 21:22 46.09617 6.09714 38007 ft 452 kts 189°
2026-04-24 21:22 46.03378 6.08330 38007 ft 454 kts 189°
2026-04-24 21:23 45.97196 6.06964 38008 ft 453 kts 189°
2026-04-24 21:23 45.90957 6.05587 38008 ft 452 kts 189°
2026-04-24 21:24 45.84756 6.04222 38008 ft 452 kts 189°
2026-04-24 21:24 45.78536 6.02848 38007 ft 451 kts 189°
2026-04-24 21:25 45.72327 6.01476 38008 ft 453 kts 189°
2026-04-24 21:25 45.66061 6.00096 38005 ft 458 kts 189°
2026-04-24 21:26 45.59753 5.98710 38006 ft 456 kts 189°
2026-04-24 21:26 45.53584 5.97358 38007 ft 448 kts 189°
2026-04-24 21:27 45.47406 5.95977 38006 ft 452 kts 191°
2026-04-24 21:27 45.41221 5.94054 38008 ft 457 kts 193°
2026-04-24 21:28 45.35034 5.92111 38007 ft 453 kts 192°
2026-04-24 21:28 45.28890 5.90195 38007 ft 449 kts 192°
2026-04-24 21:29 45.22795 5.88300 38008 ft 449 kts 192°
2026-04-24 21:29 45.16643 5.86392 38006 ft 454 kts 192°
2026-04-24 21:30 45.10468 5.84481 38007 ft 455 kts 192°
2026-04-24 21:30 45.04283 5.82571 38006 ft 451 kts 192°
2026-04-24 21:31 44.98130 5.80675 38008 ft 455 kts 192°
2026-04-24 21:31 44.91976 5.78783 38007 ft 454 kts 192°
2026-04-24 21:32 44.85816 5.76893 38006 ft 452 kts 192°
2026-04-24 21:32 44.79647 5.75005 38007 ft 454 kts 192°
2026-04-24 21:33 44.73470 5.73118 37999 ft 455 kts 192°
2026-04-24 21:33 44.67255 5.71224 38009 ft 458 kts 192°
2026-04-24 21:34 44.61093 5.69350 38006 ft 454 kts 192°
2026-04-24 21:34 44.54898 5.67471 38007 ft 455 kts 192°
2026-04-24 21:35 44.48728 5.65602 38009 ft 455 kts 192°
2026-04-24 21:35 44.42520 5.63727 38008 ft 456 kts 192°
2026-04-24 21:36 44.36412 5.61501 38007 ft 454 kts 200°
2026-04-24 21:36 44.30523 5.58283 38006 ft 455 kts 202°
2026-04-24 21:37 44.24632 5.55037 38008 ft 456 kts 201°
2026-04-24 21:37 44.18789 5.51840 38008 ft 453 kts 201°
2026-04-24 21:38 44.12895 5.48627 38007 ft 456 kts 201°
2026-04-24 21:38 44.07013 5.45427 38007 ft 452 kts 201°
2026-04-24 21:39 44.01138 5.42237 38008 ft 455 kts 201°
2026-04-24 21:39 43.95241 5.39041 38016 ft 454 kts 201°
2026-04-24 21:40 43.89399 5.35881 38007 ft 448 kts 201°
2026-04-24 21:40 43.83578 5.32737 38007 ft 450 kts 201°
2026-04-24 21:41 43.77734 5.29588 38007 ft 451 kts 201°
2026-04-24 21:41 43.71904 5.26454 38007 ft 448 kts 201°
2026-04-24 21:42 43.66110 5.23345 38015 ft 451 kts 201°
2026-04-24 21:42 43.60268 5.20216 38007 ft 448 kts 201°
2026-04-24 21:43 43.54455 5.17111 38007 ft 448 kts 201°
2026-04-24 21:43 43.48647 5.14014 38007 ft 447 kts 201°
2026-04-24 21:44 43.42855 5.10931 38007 ft 448 kts 201°
2026-04-24 21:44 43.37227 5.07273 38002 ft 448 kts 211°
2026-04-24 21:45 43.32055 5.02515 38011 ft 448 kts 215°
2026-04-24 21:45 43.26916 4.97647 38016 ft 449 kts 214°
2026-04-24 21:46 43.21766 4.92804 38011 ft 449 kts 214°
2026-04-24 21:46 43.16623 4.87982 38007 ft 447 kts 214°
2026-04-24 21:47 43.11483 4.83173 38007 ft 447 kts 214°
2026-04-24 21:47 43.06377 4.78413 38007 ft 447 kts 213°
2026-04-24 21:48 43.00982 4.74161 38007 ft 447 kts 209°
2026-04-24 21:48 42.95531 4.70039 38008 ft 447 kts 209°
2026-04-24 21:49 42.90089 4.65921 38007 ft 447 kts 209°
2026-04-24 21:49 42.84646 4.61809 38007 ft 447 kts 209°
2026-04-24 21:50 42.79188 4.57694 38008 ft 447 kts 209°
2026-04-24 21:50 42.73771 4.53619 38008 ft 447 kts 209°
2026-04-24 21:51 42.68316 4.49524 37994 ft 448 kts 209°
2026-04-24 21:51 42.65585 4.47476 37770 ft 448 kts 209°
2026-04-24 21:51 42.62861 4.45436 37431 ft 447 kts 209°
2026-04-24 21:51 42.60140 4.43400 37130 ft 445 kts 209°
2026-04-24 21:52 42.57424 4.41371 36833 ft 445 kts 209°
2026-04-24 21:52 42.54712 4.39346 36533 ft 446 kts 209°
2026-04-24 21:52 42.51983 4.37310 36233 ft 446 kts 209°
2026-04-24 21:52 42.49260 4.35281 35936 ft 446 kts 209°
2026-04-24 21:53 42.46537 4.33254 35645 ft 447 kts 209°
2026-04-24 21:53 42.43809 4.31225 35331 ft 447 kts 209°
2026-04-24 21:53 42.41082 4.29200 35043 ft 448 kts 209°
2026-04-24 21:53 42.38342 4.27166 34704 ft 449 kts 209°
2026-04-24 21:54 42.35608 4.25139 34356 ft 449 kts 209°
2026-04-24 21:54 42.32856 4.23101 34007 ft 450 kts 209°
2026-04-24 21:54 42.30151 4.21099 33661 ft 450 kts 209°
2026-04-24 21:54 42.27398 4.19064 33314 ft 451 kts 209°
2026-04-24 21:55 42.24639 4.17027 32961 ft 452 kts 209°
2026-04-24 21:55 42.21877 4.14989 32612 ft 452 kts 209°
2026-04-24 21:55 42.19109 4.12950 32266 ft 453 kts 209°
2026-04-24 21:55 42.16338 4.10909 31909 ft 454 kts 209°
2026-04-24 21:56 42.13569 4.08873 31569 ft 455 kts 208°
2026-04-24 21:56 42.10787 4.06832 31219 ft 455 kts 208°
2026-04-24 21:56 42.08001 4.04789 30867 ft 456 kts 208°
2026-04-24 21:56 42.05213 4.02747 30518 ft 455 kts 208°
2026-04-24 21:57 42.02442 4.00719 30170 ft 453 kts 208°
2026-04-24 21:57 41.99675 3.98696 29815 ft 450 kts 208°
2026-04-24 21:57 41.96940 3.96698 29465 ft 447 kts 208°
2026-04-24 21:57 41.94198 3.94841 29122 ft 445 kts 204°
2026-04-24 21:58 41.91303 3.93391 28771 ft 443 kts 197°
2026-04-24 21:58 41.88319 3.92397 28422 ft 441 kts 191°
2026-04-24 21:58 41.85309 3.91714 28074 ft 438 kts 189°
2026-04-24 21:58 41.82307 3.91034 27724 ft 436 kts 190°
2026-04-24 21:59 41.79331 3.90351 27370 ft 433 kts 190°
2026-04-24 21:59 41.76364 3.89667 27025 ft 431 kts 190°
2026-04-24 21:59 41.73413 3.88986 26672 ft 429 kts 190°
2026-04-24 21:59 41.70478 3.88309 26319 ft 426 kts 190°
2026-04-24 22:00 41.68504 3.87853 26088 ft 425 kts 190°
2026-04-24 22:00 41.65634 3.87192 25743 ft 423 kts 190°
2026-04-24 22:00 41.62741 3.86526 25393 ft 420 kts 190°
2026-04-24 22:00 41.59863 3.85865 25042 ft 418 kts 190°
2026-04-24 22:01 41.57000 3.85207 24692 ft 416 kts 190°
2026-04-24 22:01 41.54161 3.84556 24343 ft 414 kts 190°
2026-04-24 22:01 41.51329 3.83907 23992 ft 411 kts 190°
2026-04-24 22:01 41.48513 3.83262 23642 ft 409 kts 190°
2026-04-24 22:02 41.45711 3.82620 23292 ft 407 kts 190°
2026-04-24 22:02 41.42925 3.81983 22941 ft 405 kts 190°
2026-04-24 22:02 41.40160 3.81352 22593 ft 403 kts 190°
2026-04-24 22:02 41.37403 3.80722 22242 ft 401 kts 190°
2026-04-24 22:03 41.34661 3.80097 21892 ft 398 kts 190°
2026-04-24 22:03 41.31933 3.79475 21541 ft 396 kts 190°
2026-04-24 22:03 41.29219 3.78857 21191 ft 394 kts 190°
2026-04-24 22:03 41.26521 3.78244 20841 ft 392 kts 190°
2026-04-24 22:04 41.23872 3.77641 20496 ft 390 kts 190°
2026-04-24 22:04 41.21201 3.77035 20145 ft 388 kts 190°
2026-04-24 22:04 41.18544 3.76432 19794 ft 386 kts 190°
2026-04-24 22:04 41.15917 3.75781 19444 ft 384 kts 194°
2026-04-24 22:05 41.13374 3.74736 19094 ft 381 kts 201°
2026-04-24 22:05 41.10911 3.73447 18746 ft 380 kts 201°
2026-04-24 22:05 41.08457 3.72170 18401 ft 378 kts 201°
2026-04-24 22:05 41.06014 3.70906 18044 ft 376 kts 201°
2026-04-24 22:06 41.03590 3.69656 17695 ft 373 kts 201°
2026-04-24 22:06 41.01172 3.68412 17348 ft 372 kts 201°
2026-04-24 22:06 40.98760 3.67171 16993 ft 370 kts 201°
2026-04-24 22:06 40.96367 3.65942 16643 ft 368 kts 201°
2026-04-24 22:07 40.93988 3.64720 16296 ft 366 kts 201°
2026-04-24 22:07 40.91651 3.63521 15947 ft 364 kts 201°
2026-04-24 22:07 40.89295 3.62313 15597 ft 362 kts 201°
2026-04-24 22:07 40.86957 3.61115 15248 ft 360 kts 201°
2026-04-24 22:08 40.84625 3.59921 14897 ft 358 kts 201°
2026-04-24 22:08 40.82311 3.58737 14547 ft 356 kts 201°
2026-04-24 22:08 40.80003 3.57558 14197 ft 354 kts 201°
2026-04-24 22:08 40.77706 3.56384 13846 ft 353 kts 201°
2026-04-24 22:09 40.75422 3.55218 13496 ft 351 kts 201°
2026-04-24 22:09 40.73143 3.54056 13145 ft 349 kts 201°
2026-04-24 22:09 40.70882 3.52903 12794 ft 347 kts 201°
2026-04-24 22:09 40.68640 3.51761 12446 ft 345 kts 201°
2026-04-24 22:10 40.66402 3.50622 12094 ft 344 kts 201°
2026-04-24 22:10 40.64175 3.49490 11744 ft 342 kts 201°
2026-04-24 22:10 40.61989 3.48379 11398 ft 340 kts 201°
2026-04-24 22:10 40.59784 3.47259 11048 ft 338 kts 201°
2026-04-24 22:11 40.57597 3.46149 10699 ft 337 kts 201°
2026-04-24 22:11 40.55414 3.45042 10348 ft 335 kts 201°
2026-04-24 22:11 40.53249 3.43945 10166 ft 332 kts 201°
2026-04-24 22:11 40.51086 3.42849 10074 ft 334 kts 201°
2026-04-24 22:12 40.48916 3.41751 10015 ft 333 kts 201°
2026-04-24 22:12 40.46756 3.40658 10012 ft 333 kts 201°
2026-04-24 22:12 40.44565 3.39688 10009 ft 326 kts 193°
2026-04-24 22:12 40.42371 3.39330 10003 ft 310 kts 181°
2026-04-24 22:13 40.40272 3.39441 9905 ft 296 kts 177°
2026-04-24 22:13 40.38248 3.39574 9736 ft 286 kts 178°
2026-04-24 22:13 40.36256 3.39693 9560 ft 288 kts 178°
2026-04-24 22:13 40.34257 3.39807 9389 ft 288 kts 178°
2026-04-24 22:14 40.32286 3.39919 9230 ft 285 kts 178°
2026-04-24 22:14 40.30307 3.40031 9080 ft 285 kts 178°
2026-04-24 22:14 40.28324 3.40143 8930 ft 285 kts 178°
2026-04-24 22:14 40.26345 3.40256 8779 ft 284 kts 178°
2026-04-24 22:15 40.24376 3.40368 8629 ft 283 kts 178°
2026-04-24 22:15 40.22407 3.40480 8480 ft 283 kts 178°
2026-04-24 22:15 40.20441 3.40592 8329 ft 282 kts 178°
2026-04-24 22:15 40.18486 3.40703 8178 ft 281 kts 178°
2026-04-24 22:16 40.16524 3.40814 8028 ft 281 kts 178°
2026-04-24 22:16 40.14577 3.40925 7878 ft 280 kts 178°
2026-04-24 22:16 40.12623 3.41036 7727 ft 280 kts 178°
2026-04-24 22:16 40.10679 3.41146 7577 ft 279 kts 178°
2026-04-24 22:17 40.08745 3.41256 7423 ft 278 kts 178°
2026-04-24 22:17 40.06810 3.41365 7284 ft 278 kts 178°
2026-04-24 22:17 40.04879 3.41475 7126 ft 277 kts 178°
2026-04-24 22:17 40.02977 3.41582 6978 ft 277 kts 178°
2026-04-24 22:18 40.01060 3.41690 6828 ft 276 kts 178°
2026-04-24 22:18 39.99141 3.41797 6678 ft 275 kts 178°
2026-04-24 22:18 39.97227 3.41904 6527 ft 275 kts 178°
2026-04-24 22:18 39.95316 3.42011 6371 ft 274 kts 178°
2026-04-24 22:19 39.93411 3.42118 6237 ft 274 kts 178°
2026-04-24 22:19 39.91514 3.42224 6076 ft 273 kts 178°
2026-04-24 22:19 39.89616 3.42330 5926 ft 272 kts 178°
2026-04-24 22:19 39.87723 3.42436 5776 ft 272 kts 178°
2026-04-24 22:20 39.85833 3.42541 5626 ft 271 kts 178°
2026-04-24 22:20 39.83948 3.42646 5475 ft 271 kts 178°
2026-04-24 22:20 39.82071 3.42751 5316 ft 270 kts 178°
2026-04-24 22:20 39.80194 3.42856 5175 ft 270 kts 178°
2026-04-24 22:21 39.78341 3.42959 5026 ft 269 kts 178°
2026-04-24 22:21 39.76472 3.43063 4876 ft 268 kts 178°
2026-04-24 22:21 39.74607 3.43167 4725 ft 268 kts 178°
2026-04-24 22:21 39.72754 3.43074 4569 ft 266 kts 195°
2026-04-24 22:22 39.71127 3.41979 4425 ft 265 kts 223°
2026-04-24 22:22 39.70104 3.40023 4348 ft 264 kts 251°
2026-04-24 22:22 39.69904 3.37674 4348 ft 265 kts 273°
2026-04-24 22:22 39.70005 3.35282 4340 ft 265 kts 273°
2026-04-24 22:23 39.70104 3.32895 4344 ft 265 kts 273°
2026-04-24 22:23 39.70193 3.30511 4341 ft 265 kts 272°
2026-04-24 22:23 39.70274 3.28119 4336 ft 265 kts 272°
2026-04-24 22:23 39.70350 3.25728 4339 ft 264 kts 272°
2026-04-24 22:24 39.70423 3.23373 4343 ft 264 kts 272°
2026-04-24 22:24 39.70496 3.20985 4343 ft 264 kts 272°
2026-04-24 22:24 39.70568 3.18597 4343 ft 264 kts 272°
2026-04-24 22:24 39.70640 3.16209 4339 ft 264 kts 272°
2026-04-24 22:25 39.70711 3.13814 4343 ft 265 kts 272°
2026-04-24 22:25 39.70781 3.11432 4342 ft 264 kts 271°
2026-04-24 22:25 39.70591 3.09064 4341 ft 264 kts 255°
2026-04-24 22:25 39.69911 3.06846 4341 ft 265 kts 243°
2026-04-24 22:26 39.69000 3.04766 4338 ft 265 kts 238°
2026-04-24 22:26 39.68031 3.02729 4340 ft 265 kts 239°
2026-04-24 22:26 39.67075 3.00689 4299 ft 266 kts 239°
2026-04-24 22:26 39.66123 2.98664 3999 ft 266 kts 239°
2026-04-24 22:27 39.65161 2.96617 3650 ft 265 kts 239°
2026-04-24 22:27 39.64206 2.94585 3295 ft 262 kts 239°
2026-04-24 22:27 39.63258 2.92569 2935 ft 260 kts 239°
2026-04-24 22:27 39.62318 2.90570 2600 ft 258 kts 239°
2026-04-24 22:28 39.61385 2.88586 2257 ft 256 kts 239°
2026-04-24 22:28 39.60475 2.86654 1923 ft 249 kts 239°
2026-04-24 22:28 39.59542 2.84673 1586 ft 262 kts 239°
2026-04-24 22:28 39.58601 2.82672 1242 ft 254 kts 239°
2026-04-24 22:29 39.56863 2.78982 593 ft 226 kts 239°
2026-04-24 22:29 39.56068 2.77296 299 ft 211 kts 239°
2026-04-24 22:29 39.55329 2.75734 46 ft 195 kts 238°
2026-04-24 22:30 39.54681 2.74343 34 ft 158 kts 238°
2026-04-24 22:30 39.54305 2.73562 34 ft 31 kts 244°
2026-04-24 22:30 39.54276 2.73392 37 ft 22 kts 271°
2026-04-24 22:30 39.54314 2.73190 37 ft 8 kts 314°
2026-04-24 22:31 39.54319 2.73191 38 ft 1 kts 359°
2026-04-24 22:31 39.54368 2.73212 38 ft 14 kts 18°
2026-04-24 22:31 39.54475 2.73286 37 ft 22 kts 56°
2026-04-24 22:31 39.54543 2.73433 35 ft 11 kts 59°
2026-04-24 22:32 39.54618 2.73549 35 ft 18 kts 24°
2026-04-24 22:32 39.54637 2.73554 35 ft 6 kts 21°
2026-04-24 22:32 39.54697 2.73635 35 ft 19 kts 50°
2026-04-24 22:32 39.54707 2.73655 34 ft 0 kts 57°